When you browse on this site, cookies collect data to enhance your experience and personalize the content and advertising you see.
Visit our Privacy Policy to learn more. By continuing to use the site, you agree to this use of cookies and data.
  • In Portugal
  • List of Countries
  • For 7 days
  • Water Temperature
  • Weather Map
  • Weather Widgets
  • user-avatar
    Login

    Hourly Weather Mingachevir

    Today, 24 August, Saturday

    Time Temperature Precipitation Wind Pressure Humidity
    00:00 +27°C° 0 mm 3 mps 750 mmHg 43%
    01:00 +27°C° 0 mm 3 mps 750 mmHg 46%
    02:00 +26°C° 0 mm 2 mps 750 mmHg 50%
    03:00 +26°C° 0 mm 2 mps 750 mmHg 53%
    04:00 +26°C° 0 mm 2 mps 751 mmHg 54%
    05:00 +26°C° 0 mm 2 mps 751 mmHg 55%
    06:00 +26°C° 0 mm 1 mps 751 mmHg 55%
    07:00 +29°C° 0 mm 2 mps 751 mmHg 50%
    08:00 +31°C° 0 mm 2 mps 751 mmHg 44%
    09:00 +34°C° 0 mm 2 mps 751 mmHg 38%
    10:00 +36°C° 0 mm 4 mps 751 mmHg 33%
    11:00 +39°C° 0 mm 5 mps 750 mmHg 27%
    12:00 +41°C° 0 mm 6 mps 750 mmHg 22%
    13:00 +42°C° 0 mm 6 mps 750 mmHg 20%
    14:00 +44°C° 0 mm 6 mps 749 mmHg 18%
    15:00 +45°C° 0 mm 7 mps 749 mmHg 17%
    16:00 +44°C° 0 mm 7 mps 749 mmHg 16%
    17:00 +43°C° 0 mm 7 mps 749 mmHg 15%
    18:00 +41°C° 0 mm 8 mps 749 mmHg 15%
    19:00 +38°C° 0 mm 7 mps 750 mmHg 21%
    20:00 +34°C° 0 mm 6 mps 750 mmHg 27%
    21:00 +30°C° 0 mm 5 mps 751 mmHg 34%
    22:00 +29°C° 0 mm 4 mps 751 mmHg 37%
    23:00 +28°C° 0 mm 3 mps 751 mmHg 40%

    Tomorrow, 25 August, Sunday

    Time Temperature Precipitation Wind Pressure Humidity
    00:00 +27°C° 0 mm 2 mps 751 mmHg 44%
    01:00 +27°C° 0 mm 2 mps 751 mmHg 47%
    02:00 +26°C° 0 mm 1 mps 751 mmHg 50%
    03:00 +25°C° 0 mm 1 mps 751 mmHg 53%
    04:00 +26°C° 0 mm 1 mps 751 mmHg 52%
    05:00 +26°C° 0 mm 1 mps 751 mmHg 52%
    06:00 +26°C° 0 mm 1 mps 751 mmHg 51%
    07:00 +29°C° 0 mm 1 mps 751 mmHg 45%
    08:00 +31°C° 0 mm 2 mps 751 mmHg 38%
    09:00 +35°C° 0 mm 2 mps 751 mmHg 31%
    10:00 +36°C° 0 mm 2 mps 750 mmHg 27%
    11:00 +38°C° 0 mm 3 mps 750 mmHg 22%
    12:00 +40°C° 0 mm 3 mps 750 mmHg 17%
    13:00 +40°C° 0 mm 3 mps 749 mmHg 16%
    14:00 +42°C° 0 mm 3 mps 749 mmHg 15%
    15:00 +43°C° 0 mm 4 mps 749 mmHg 14%
    16:00 +41°C° 0.1 mm 4 mps 749 mmHg 17%
    17:00 +40°C° 0.1 mm 4 mps 749 mmHg 19%
    18:00 +37°C° 0.1 mm 4 mps 749 mmHg 22%
    19:00 +35°C° 0 mm 4 mps 750 mmHg 25%
    20:00 +32°C° 0 mm 4 mps 750 mmHg 28%
    21:00 +29°C° 0 mm 4 mps 751 mmHg 31%
    22:00 +28°C° 0 mm 3 mps 751 mmHg 35%
    23:00 +27°C° 0 mm 3 mps 751 mmHg 39%

    Day after tomorrow, 26 August, Monday

    Time Temperature Precipitation Wind Pressure Humidity
    00:00 +25°C° 0 mm 2 mps 751 mmHg 43%
    01:00 +25°C° 0 mm 2 mps 751 mmHg 46%
    02:00 +24°C° 0 mm 1 mps 751 mmHg 49%
    03:00 +23°C° 0 mm 1 mps 751 mmHg 51%
    04:00 +24°C° 0 mm 1 mps 752 mmHg 52%
    05:00 +24°C° 0 mm 1 mps 752 mmHg 52%
    06:00 +22°C° 0 mm 0 mps 752 mmHg 52%
    07:00 +26°C° 0.1 mm 1 mps 752 mmHg 45%
    08:00 +29°C° 0.1 mm 1 mps 752 mmHg 37%
    09:00 +31°C° 0.1 mm 2 mps 752 mmHg 30%
    10:00 +34°C° 0 mm 3 mps 752 mmHg 25%
    11:00 +36°C° 0 mm 4 mps 752 mmHg 20%
    12:00 +38°C° 0 mm 4 mps 752 mmHg 15%
    13:00 +39°C° 0 mm 5 mps 752 mmHg 15%
    14:00 +40°C° 0 mm 5 mps 751 mmHg 14%
    15:00 +41°C° 0 mm 6 mps 751 mmHg 14%
    16:00 +39°C° 0 mm 7 mps 751 mmHg 16%
    17:00 +38°C° 0 mm 7 mps 751 mmHg 18%
    18:00 +37°C° 0 mm 8 mps 751 mmHg 21%
    19:00 +34°C° 0 mm 8 mps 752 mmHg 27%
    20:00 +32°C° 0 mm 8 mps 753 mmHg 32%
    21:00 +29°C° 0 mm 8 mps 754 mmHg 38%
    22:00 +29°C° 0 mm 8 mps 754 mmHg 40%
    23:00 +29°C° 0 mm 7 mps 754 mmHg 41%

    27 August, Tuesday

    Time Temperature Precipitation Wind Pressure Humidity
    00:00 +28°C° 0 mm 6 mps 754 mmHg 43%
    01:00 +28°C° 0 mm 6 mps 754 mmHg 45%
    02:00 +27°C° 0 mm 6 mps 754 mmHg 47%
    03:00 +27°C° 0 mm 6 mps 754 mmHg 49%
    04:00 +26°C° 0 mm 5 mps 754 mmHg 51%
    05:00 +26°C° 0 mm 5 mps 754 mmHg 53%
    06:00 +25°C° 0 mm 4 mps 753 mmHg 56%
    07:00 +27°C° 0 mm 5 mps 753 mmHg 49%
    08:00 +29°C° 0 mm 6 mps 753 mmHg 43%
    09:00 +32°C° 0 mm 7 mps 753 mmHg 36%
    10:00 +34°C° 0 mm 7 mps 752 mmHg 33%
    11:00 +35°C° 0 mm 6 mps 752 mmHg 30%
    12:00 +36°C° 0 mm 6 mps 751 mmHg 26%
    13:00 +38°C° 0.1 mm 6 mps 751 mmHg 26%
    14:00 +37°C° 0.1 mm 5 mps 750 mmHg 26%
    15:00 +37°C° 0.1 mm 5 mps 749 mmHg 25%
    16:00 +36°C° 0.2 mm 5 mps 750 mmHg 28%
    17:00 +34°C° 0.2 mm 4 mps 750 mmHg 32%
    18:00 +33°C° 0.2 mm 4 mps 750 mmHg 35%
    19:00 +30°C° 0.2 mm 4 mps 750 mmHg 41%
    20:00 +29°C° 0.2 mm 4 mps 750 mmHg 46%
    21:00 +27°C° 0.2 mm 4 mps 750 mmHg 51%
    22:00 +26°C° 0.1 mm 4 mps 750 mmHg 56%
    23:00 +25°C° 0.1 mm 3 mps 750 mmHg 62%

    28 August, Wednesday

    Time Temperature Precipitation Wind Pressure Humidity
    00:00 +24°C° 0.1 mm 2 mps 750 mmHg 67%
    01:00 +24°C° 0 mm 2 mps 749 mmHg 69%
    02:00 +23°C° 0 mm 1 mps 749 mmHg 71%
    03:00 +21°C° 0 mm 0 mps 749 mmHg 74%
    04:00 +23°C° 0 mm 1 mps 749 mmHg 72%
    05:00 +24°C° 0 mm 1 mps 749 mmHg 71%
    06:00 +24°C° 0 mm 1 mps 749 mmHg 69%
    07:00 +26°C° 0 mm 2 mps 749 mmHg 61%
    08:00 +28°C° 0 mm 3 mps 749 mmHg 53%
    09:00 +30°C° 0 mm 4 mps 749 mmHg 45%
    10:00 +33°C° 0 mm 4 mps 749 mmHg 40%
    11:00 +35°C° 0 mm 3 mps 749 mmHg 35%
    12:00 +36°C° 0 mm 3 mps 748 mmHg 31%
    13:00 +37°C° 0 mm 3 mps 748 mmHg 29%
    14:00 +38°C° 0 mm 2 mps 748 mmHg 27%
    15:00 +39°C° 0 mm 2 mps 747 mmHg 26%
    16:00 +37°C° 0 mm 2 mps 748 mmHg 28%
    17:00 +36°C° 0 mm 3 mps 748 mmHg 31%
    18:00 +35°C° 0 mm 3 mps 748 mmHg 34%
    19:00 +33°C° 0 mm 4 mps 749 mmHg 39%
    20:00 +30°C° 0 mm 5 mps 749 mmHg 45%
    21:00 +28°C° 0 mm 6 mps 750 mmHg 50%
    22:00 +27°C° 0 mm 5 mps 750 mmHg 54%
    23:00 +26°C° 0 mm 4 mps 750 mmHg 57%

    29 August, Thursday

    Time Temperature Precipitation Wind Pressure Humidity
    00:00 +25°C° 0 mm 3 mps 751 mmHg 60%
    01:00 +24°C° 0 mm 3 mps 751 mmHg 62%
    02:00 +24°C° 0 mm 3 mps 751 mmHg 63%
    03:00 +24°C° 0 mm 2 mps 751 mmHg 65%
    04:00 +24°C° 0 mm 2 mps 751 mmHg 66%
    05:00 +24°C° 0 mm 2 mps 752 mmHg 68%
    06:00 +24°C° 0 mm 2 mps 752 mmHg 70%
    07:00 +26°C° 0 mm 2 mps 752 mmHg 60%
    08:00 +28°C° 0 mm 3 mps 752 mmHg 50%
    09:00 +30°C° 0 mm 3 mps 752 mmHg 40%
    10:00 +33°C° 0 mm 4 mps 752 mmHg 37%
    11:00 +34°C° 0 mm 4 mps 751 mmHg 33%
    12:00 +35°C° 0 mm 5 mps 751 mmHg 29%
    13:00 +36°C° 0 mm 5 mps 751 mmHg 28%
    14:00 +37°C° 0 mm 5 mps 750 mmHg 27%
    15:00 +37°C° 0 mm 5 mps 750 mmHg 27%
    16:00 +36°C° 0 mm 6 mps 750 mmHg 30%
    17:00 +34°C° 0 mm 8 mps 750 mmHg 33%
    18:00 +33°C° 0 mm 9 mps 750 mmHg 36%
    19:00 +29°C° 0.1 mm 9 mps 750 mmHg 47%
    20:00 +27°C° 0.1 mm 8 mps 751 mmHg 58%
    21:00 +24°C° 0.1 mm 7 mps 752 mmHg 68%
    22:00 +23°C° 0.1 mm 7 mps 751 mmHg 70%
    23:00 +22°C° 0.1 mm 7 mps 751 mmHg 71%
    Show more